Weather Roundup
Issued by NWS Chicago, IL

Home | Current Version | Previous Version | Graphics & Text | Print | Product List | Glossary On
Versions: 1 2 3 4 5 6 7 8 9 10 11 12 13 14 15 16 17 18 19 20 21 22 23 24 25 26 27 28 29 30 31 32 33 34 35 36 37 38 39 40 41 42 43 44 45 46 47 48 49 50
000
NZUS59 KLOT 261510
HRRLOT

CHICAGO AREA WEATHER ROUNDUP
NATIONAL WEATHER SERVICE CHICAGO/ROMEOVILLE IL
900 AM CST FRI DEC 26 2014

NOTE: "FAIR" INDICATES FEW OR NO CLOUDS BELOW 12,000 FEET WITH NO
SIGNIFICANT WEATHER AND/OR OBSTRUCTIONS TO VISIBILITY.

* THESE STATIONS ARE NOT UNDER NWS QUALITY CONTROL. THEY ALSO MAY NOT
  REPORT WEATHER SUCH AS PRECIPITATION OR FOG.

ILZ005-006-012>014-019>023-261600-
NORTHEAST ILLINOIS

CITY           SKY/WX    TMP DP  RH WIND       PRES   REMARKS
OHARE          PTSUNNY   40  34  79 SW13G18   30.02R
MIDWAY         PTSUNNY   41  35  79 SW12G21   30.04R
AURORA         PTSUNNY   36  32  85 SE3       30.02R
LANSING*       SUNNY     38  34  83 SW10      30.06R
JOLIET*        MOSUNNY   40  34  78 S8G17     30.04S
WAUKEGAN       SUNNY     40  34  79 SW16      29.99S
DUPAGE AIRPORT MOSUNNY   37  34  89 S9        30.01R
WHEELING       SUNNY     39  33  79 S10       30.03S
KANKAKEE*      SUNNY     41  36  82 S16G23    30.07R
MORRIS*        MOSUNNY   42  37  85 SW15      30.03R
LEWIS AIRPORT* MOSUNNY   40  35  81 SW15      30.03S
NORTHERLY IS     N/A     40  33  76 S9          N/A
$$

WIZ051-052-058>065-066-070>072-261600-
SOUTHEAST WISCONSIN

CITY           SKY/WX    TMP DP  RH WIND       PRES   REMARKS
MILWAUKEE      MOSUNNY   40  33  76 SW14      29.99R
KENOSHA*       SUNNY     39  33  79 SW14      29.99R
RACINE*        SUNNY     38  33  82 SW10      30.01R
BURLINGTON     SUNNY     35  32  90 S6        29.99R WCI  30
WAUKESHA       SUNNY     37  34  87 S6        29.99R
WEST BEND      SUNNY     37  32  81 SW6       29.97R
$$

INZ001>003-010>013-019-020-261600-
NORTHWEST INDIANA

CITY           SKY/WX    TMP DP  RH WIND       PRES   REMARKS
GARY*          MOSUNNY   41  32  70 S10       30.07R
MICHIGAN CITY* NOT AVBL
RENSSELAER*    NOT AVBL
VALPARAISO     SUNNY     37  33  85 S7        30.08R
$$

LMZ740>746-261600-
SOUTHERN LAKE MICHIGAN

STATION/POSITION TIME  SKY/WX   TEMP WIND        PRES    VSBY
                                AIR  DIR/SP/G
                 (UTC)          (F)  (DEG/KT/KT) (MB)    (MI)
HARRISON CRIB    1500            38  200/ 22/ 25   N/A
BURNHAM HARBOR   1500            40  190/  7/ 12   N/A
CALUMET HARBOR   1500            40  200/ 11/ 15 1016.2R
BURNS HARBOR     NOT AVBL
MICHIGAN CITY    1500            39  160/ 14/ 18   N/A
$$

ABBREVIATIONS USED IN REMARKS
   TC - TEMPERATURE IN CELSIUS
  WCI - WIND CHILL INDEX
   HX - HEAT INDEX
  VSB - VISIBILITY
$$



USA.gov is the U.S. government's official web portal to all federal, state and local government web resources and services.